Probability
1 4 7 8 6 5 4 4 4 3 2 2 2 1 0 0 0 0 0 0 0 1 2 3 3 3 2 2 1 0 1 2 3 1 0 0 0 0 1 0 0 0 0
0 3 7 8 7 5 4 4 4 3 2 2 2 2 1 0 0 0 0 0 1 1 3 3 3 3 2 1 0 0 1 2 3 2 1 0 0 1 1 1 0 0 0
0 2 5 8 8 6 4 4 4 4 3 2 2 1 1 1 2 1 1 1 1 2 3 3 3 3 2 1 0 0 1 2 3 2 1 0 0 1 2 1 0 0 0
0 2 4 7 7 6 4 4 4 3 3 3 2 2 2 2 2 2 1 1 1 2 3 3 3 3 2 1 0 0 1 2 3 2 1 0 0 1 1 1 0 0 0
1 2 5 6 6 5 4 3 3 3 3 3 3 3 3 2 2 2 2 0 0 1 1 2 3 3 2 1 0 0 1 2 3 2 1 0 0 0 0 1 0 0 0
1 2 4 5 5 4 4 4 3 3 3 3 3 4 3 2 2 3 2 1 0 0 0 1 1 2 1 0 0 0 1 2 2 2 1 1 1 1 1 1 0 0 0
1 2 3 4 4 3 4 3 3 3 3 3 3 3 2 2 1 2 2 2 1 1 0 0 0 0 0 0 0 0 0 1 1 1 1 2 2 2 2 1 1 0 0
1 2 2 2 2 3 3 4 3 3 3 3 3 3 2 1 1 1 1 1 2 2 1 0 0 0 0 0 0 0 0 0 1 1 2 2 3 3 3 3 2 1 0
1 2 2 1 1 1 3 4 4 3 3 3 3 3 1 1 0 0 1 1 1 2 1 0 0 0 0 0 0 0 0 1 1 1 1 1 3 3 3 3 2 1 0
1 1 1 0 0 0 1 2 3 2 2 3 3 3 2 1 0 0 1 0 1 1 1 0 0 0 0 0 0 0 1 2 1 0 0 1 2 3 3 1 1 0 0
1 0 0 0 0 0 0 1 1 1 1 1 2 3 3 2 1 1 1 1 0 0 0 0 0 0 0 0 1 2 2 2 2 0 0 1 2 3 2 1 0 0 0
0 0 0 0 1 1 0 1 2 2 1 0 1 3 4 4 4 3 2 2 1 0 0 0 0 0 0 1 2 3 3 2 1 0 0 1 2 2 1 0 0 0 0
0 0 0 0 1 1 0 1 3 4 2 2 2 4 5 6 6 6 5 4 3 1 0 0 0 0 0 1 2 3 3 2 1 0 0 1 2 1 0 0 0 0 0
0 0 0 0 1 0 0 0 2 3 3 4 6 7 8 9 8 8 8 7 5 3 1 0 0 0 0 0 1 2 2 1 0 0 0 1 1 0 0 1 1 0 0
0 0 1 1 2 1 1 0 0 1 3 5 7 8 10 10 10 11 11 10 8 4 1 0 0 0 0 0 0 1 1 0 0 0 0 0 0 0 0 1 1 0 0
0 1 2 2 3 3 2 1 0 1 3 5 6 7 9 11 12 12 12 12 9 5 2 1 1 1 0 0 0 0 0 0 0 0 0 0 0 0 1 1 1 0 0
1 2 2 2 2 3 2 1 0 1 2 4 5 6 8 11 13 13 13 11 9 7 5 3 1 1 0 0 0 0 0 0 0 0 0 0 0 0 2 2 2 0 0
1 2 2 1 2 3 3 1 0 2 4 4 5 6 8 9 12 13 12 10 9 8 6 4 2 1 0 0 0 0 0 0 0 0 0 0 0 0 2 4 4 2 0
1 2 2 2 3 3 3 3 2 3 6 6 6 7 8 8 9 11 12 10 8 7 6 4 3 1 0 0 0 0 0 0 0 0 0 0 0 0 1 4 4 3 2
3 4 4 5 5 5 5 4 4 4 6 7 8 8 8 8 8 9 11 10 8 6 6 4 3 2 1 0 0 0 0 0 0 0 0 0 0 0 0 1 3 4 4
4 6 6 6 6 6 5 4 4 4 5 7 9 10 9 8 8 8 8 8 7 7 6 4 3 3 1 0 0 1 2 1 0 0 1 1 0 0 0 1 2 4 5
4 5 5 5 5 6 5 4 3 3 4 6 9 9 8 8 8 7 7 6 7 7 6 5 4 3 2 0 0 1 2 2 1 1 2 2 1 1 2 2 3 4 4
4 4 4 4 5 6 6 4 3 3 3 4 6 6 6 7 7 7 6 6 6 6 6 6 5 4 2 1 1 1 2 3 3 2 2 2 2 3 3 2 3 4 5
4 5 7 8 8 9 8 6 4 3 3 3 3 4 5 6 6 5 5 7 7 7 7 7 6 5 4 3 3 3 4 5 3 2 1 1 2 3 2 2 2 4 5
7 7 10 12 12 13 11 8 5 4 3 3 2 2 3 5 6 5 6 8 10 9 9 9 10 9 7 5 5 6 6 5 3 2 1 1 2 2 2 1 1 2 3
8 9 11 13 14 15 13 9 6 4 3 2 1 1 2 5 7 6 6 9 11 9 9 12 13 13 10 7 7 7 6 5 3 3 1 1 2 2 2 2 1 1 1
Wind_Speed
6 8 10 9 12 14 14 14 14 15 15 15 15 15 16 16 16 16 16 16 16 16 15 15 14 13 13 12 12 12 13 12 12 12 12 12 12 11 11 11 10 11 13
7 9 12 10 12 13 13 14 13 14 15 15 15 15 15 15 16 16 15 15 15 15 15 14 13 13 12 12 12 12 12 11 11 12 12 12 11 10 9 7 6 10 12
7 9 11 10 10 11 13 13 13 14 14 14 15 15 15 15 15 15 15 15 15 15 14 13 13 12 12 12 12 11 11 11 10 10 10 9 11 10 9 9 11 12 11
7 8 9 11 10 11 12 12 13 14 14 14 14 14 15 15 15 15 14 14 14 14 14 13 12 12 11 11 11 10 10 10 9 8 6 7 9 11 9 10 11 11 10
7 7 10 11 11 11 12 12 12 13 14 14 14 14 14 15 15 14 14 13 13 13 13 12 12 11 11 11 10 9 9 9 8 7 6 6 8 10 9 10 10 10 10
8 8 11 11 11 11 12 11 12 12 13 14 14 14 14 14 14 14 14 12 13 13 13 12 11 11 10 10 9 9 8 8 8 6 6 6 7 10 9 9 9 9 9
7 8 11 11 11 11 11 11 11 12 12 13 13 13 13 13 14 14 14 12 12 12 12 11 10 10 9 9 9 8 7 6 4 6 6 6 8 9 8 8 9 9 8
7 8 10 12 11 11 11 11 11 12 12 12 12 12 12 13 13 13 13 13 12 12 11 10 10 9 8 8 7 7 7 6 5 5 5 6 10 8 8 8 8 8 8
6 7 8 9 11 12 12 11 11 11 12 12 12 12 12 12 12 13 13 13 12 11 10 10 9 9 8 7 6 7 6 4 3 4 5 5 10 8 8 8 8 8 8
7 7 7 7 8 9 10 12 11 11 11 11 11 11 12 12 12 12 13 12 12 11 10 9 8 7 6 6 6 6 6 7 4 4 3 7 10 8 8 8 8 8 8
7 6 6 6 7 7 8 10 10 11 11 10 10 11 11 8 9 10 11 11 11 11 10 8 8 7 6 7 7 7 7 4 3 2 2 9 8 8 8 8 8 8 8
7 7 5 5 6 6 6 6 5 6 7 7 6 8 6 5 5 7 10 11 11 11 10 9 7 8 7 5 7 8 4 3 2 2 5 9 7 8 8 8 8 8 8
7 6 5 5 4 4 4 4 3 3 4 5 7 7 5 5 5 5 5 7 8 10 7 8 7 4 3 2 2 2 1 1 1 1 5 9 7 7 8 8 8 8 8
6 6 5 5 4 4 3 3 4 3 3 4 5 6 5 4 4 4 3 4 4 4 4 3 3 3 2 1 2 1 1 2 1 0 4 8 7 7 7 8 8 8 8
6 5 5 5 4 4 3 3 4 4 3 4 4 4 4 4 4 4 3 3 3 3 4 3 3 3 2 2 1 2 1 1 2 1 3 8 8 7 7 7 8 8 8
5 5 5 5 4 4 4 4 3 4 3 3 4 4 4 3 3 3 4 4 3 3 3 3 3 2 2 1 2 2 2 2 1 2 2 5 9 8 7 7 7 7 8
6 5 4 5 4 4 4 5 4 4 4 3 4 5 4 4 4 3 3 3 3 3 3 3 3 2 2 2 3 2 2 2 2 2 2 2 5 9 8 7 7 7 7
6 5 4 4 4 4 3 3 3 3 3 3 3 4 5 4 4 3 3 3 3 3 3 3 3 2 2 2 2 2 2 2 3 3 2 3 3 3 8 9 7 7 7
6 5 5 4 4 4 4 3 3 3 3 3 3 3 4 5 5 4 3 2 4 3 3 3 2 2 2 1 2 2 2 2 3 3 3 3 3 3 3 8 10 8 8
6 6 5 5 5 4 4 3 3 3 3 3 3 3 4 4 5 4 3 4 4 3 3 3 2 2 2 2 3 2 3 3 3 3 4 3 3 4 4 4 6 8 9
7 6 6 5 5 5 4 4 4 4 4 3 3 4 5 4 5 4 3 4 4 3 3 4 3 4 3 2 2 2 3 4 3 3 3 3 4 4 4 4 4 3 5
8 7 7 6 6 6 4 3 3 2 3 3 3 4 4 5 5 5 5 4 4 3 4 4 4 3 3 3 2 2 3 4 4 4 3 4 3 3 4 4 4 4 4
8 8 6 7 7 6 5 4 3 3 3 3 3 3 5 5 5 4 5 4 4 5 4 5 5 5 3 3 3 3 2 2 2 4 4 3 3 3 4 3 5 5 5
9 8 7 7 7 7 6 5 5 4 3 3 2 2 3 5 5 5 6 5 5 4 4 6 5 4 5 4 3 3 3 2 3 2 3 3 3 4 4 4 4 4 5
8 8 7 7 7 7 6 5 5 4 3 2 2 2 2 3 5 5 5 5 5 5 5 5 4 5 4 5 4 3 3 3 5 4 3 3 3 3 3 4 4 4 4
7 7 7 7 6 6 6 6 5 4 4 3 3 3 3 3 3 5 6 5 6 5 5 6 5 7 5 5 5 4 4 4 4 4 4 4 3 3 3 3 4 4 4
Wind_Direction
123 122 123 124 135 136 137 136 134 134 135 135 134 133 131 131 131 131 130 128 127 126 125 124 124 123 122 122 120 120 119 120 120 118 117 116 116 116 118 127 136 116 114
118 124 125 122 127 136 138 137 136 136 136 137 136 134 133 133 132 132 131 130 129 128 126 125 124 123 122 120 121 120 120 121 123 125 127 125 121 121 120 116 95 108 122
119 126 132 130 131 134 137 137 137 136 135 137 138 139 136 134 132 132 131 131 132 131 128 127 125 124 122 120 121 124 125 126 128 138 157 138 126 126 122 115 111 120 124
122 128 129 129 133 134 136 137 137 138 138 139 141 142 141 137 135 134 133 133 132 132 130 128 128 126 124 123 124 127 131 131 139 172 163 125 125 124 129 126 127 130 129
122 126 124 134 136 135 136 137 138 138 139 140 141 142 142 140 139 136 135 134 134 133 132 131 131 129 126 126 129 131 134 139 159 192 122 118 117 128 136 136 136 135 136
127 131 125 136 136 135 137 139 138 139 139 140 140 140 142 141 141 137 135 138 138 137 137 137 136 133 129 129 132 136 140 153 190 140 122 127 122 136 146 146 145 143 143
126 127 129 136 137 137 138 141 141 139 138 139 139 138 140 141 142 139 138 139 140 141 140 140 139 135 134 135 138 142 147 180 182 127 134 130 115 135 152 155 153 152 153
130 132 132 141 142 140 141 143 142 141 140 141 141 141 142 145 145 144 142 142 145 143 142 142 140 138 139 140 143 148 161 208 161 140 144 128 120 146 158 161 160 161 163
125 132 135 144 147 148 147 145 142 141 141 142 146 145 148 148 148 147 146 147 148 147 146 146 144 146 145 147 153 159 171 218 205 145 147 127 134 158 166 169 169 170 171
111 121 128 138 142 149 148 147 145 144 145 147 150 151 153 154 153 154 154 151 151 150 150 149 147 147 149 154 160 163 178 209 196 159 149 125 145 168 177 177 178 179 180
108 112 117 130 140 143 141 142 150 151 152 157 156 156 163 161 154 160 148 152 155 154 153 151 150 152 165 168 167 174 196 202 164 164 137 123 160 181 186 186 188 189 190
117 116 117 126 135 135 132 136 150 151 151 158 152 157 158 151 153 150 148 159 160 160 160 157 159 171 197 176 166 185 202 189 179 173 131 143 175 193 194 190 192 195 196
121 118 124 126 124 124 130 137 136 135 144 151 153 157 153 155 156 153 155 161 162 169 167 161 178 181 181 152 186 188 188 226 217 181 137 156 184 199 199 194 196 199 200
122 124 128 128 129 129 130 135 146 147 151 148 147 163 157 158 161 148 154 157 163 161 156 174 170 158 164 175 206 213 215 247 247 173 142 162 187 200 202 197 198 203 206
128 131 127 129 135 140 146 163 148 151 158 150 148 153 161 162 159 153 153 157 164 156 165 172 166 154 176 183 226 235 242 253 262 251 151 162 183 196 202 202 201 207 213
138 138 136 141 144 155 163 165 157 158 158 160 156 157 174 165 158 165 163 160 167 172 165 172 168 177 204 202 231 247 259 255 234 248 228 164 179 191 198 201 204 212 221
147 146 151 157 157 164 168 168 165 170 161 165 159 163 177 175 164 170 167 172 172 179 181 187 181 195 205 215 227 240 244 257 254 241 237 209 181 186 192 200 208 216 222
152 153 164 167 154 156 162 173 167 174 168 172 170 168 179 178 177 184 181 175 170 187 187 184 197 197 211 236 232 238 238 225 232 227 222 211 212 194 183 192 204 212 218
160 161 167 174 167 164 163 171 174 175 185 182 176 179 178 186 187 195 191 172 187 192 196 203 179 201 207 227 241 221 225 219 222 220 223 226 221 222 204 177 197 207 216
165 167 172 177 175 179 178 181 183 184 187 190 187 182 189 190 191 204 191 183 199 196 199 199 194 208 216 220 243 228 226 222 221 213 224 218 220 225 223 209 199 198 209
170 175 178 183 181 192 189 193 186 185 187 183 186 183 191 195 190 200 208 187 204 201 205 203 200 203 207 213 233 227 219 217 220 211 227 239 224 226 223 225 236 228 195
179 183 185 189 189 199 195 207 206 198 198 187 192 182 196 195 194 193 202 207 199 198 202 205 207 219 211 206 230 234 221 205 210 213 219 223 235 234 234 224 226 229 251
186 190 193 197 195 199 196 198 189 184 203 193 195 195 203 203 201 206 203 218 213 216 203 209 212 217 225 223 227 244 249 240 214 200 210 215 226 241 245 247 235 229 234
189 188 193 197 195 193 195 202 197 199 203 200 206 197 196 202 208 207 210 212 216 223 211 218 206 216 221 224 220 238 258 285 263 229 212 218 231 240 248 254 244 234 235
189 187 185 187 188 187 194 196 206 217 213 205 208 196 213 200 206 210 213 215 214 222 218 228 216 226 227 232 234 232 230 234 245 259 254 240 233 238 238 243 248 242 236
184 183 180 179 183 184 191 197 201 215 223 229 227 226 220 211 208 214 219 216 218 221 214 221 222 222 231 238 242 239 234 238 238 247 258 256 251 243 243 247 245 239 234